Simultaneous Nadir Overpasses (SNOs) Predictions

Prediction of SNOs between LANDSAT-8 and NOAA-19 Satellite Orbit:

Table of predicted SNOs for the next 14.0 days since TLE Epoch: 10/15/2017
Index Date (LANDSAT-8) Time (LANDSAT-8) Lat,Lon (LANDSAT-8) SZA (LANDSAT-8 ) Date (NOAA-19) Time (NOAA-19) Lat,Lon (NOAA-19) SZA (NOAA-19 ) Distance(km) Time Diff (sec)
1 10/16/2017 17:20:46 76.72, -69.59 86.19 10/16/2017 17:20:21 76.71, -69.61 86.17 1.47 25
2 10/16/2017 18:10:15 -76.64, 97.77 93.90 10/16/2017 18:11:23 -76.67, 97.80 93.85 2.98 68
3 10/18/2017 22:54:31 -76.73, 27.00 92.99 10/18/2017 22:54:08 -76.72, 26.97 93.00 1.27 23
4 10/18/2017 23:43:58 76.67,-165.57 86.95 10/18/2017 23:45:06 76.68,-165.60 86.98 1.28 68
5 10/21/2017 04:28:14 76.75, 123.63 87.84 10/21/2017 04:27:52 76.75, 123.48 87.83 4.01 22
6 10/21/2017 05:17:43 -76.67, -68.99 92.24 10/21/2017 05:18:52 -76.67, -68.94 92.22 1.14 69
7 10/23/2017 10:01:59 -76.75,-139.78 91.37 10/23/2017 10:01:37 -76.73,-139.79 91.40 2.92 22
8 10/23/2017 10:51:26 76.69, 27.62 88.57 10/23/2017 10:52:36 76.68, 27.66 88.58 1.25 70
9 10/25/2017 15:35:42 76.76, -43.19 89.42 10/25/2017 15:35:22 76.75, -43.28 89.41 2.35 20
10 10/25/2017 16:25:11 -76.69, 124.21 90.66 10/25/2017 16:26:21 -76.68, 124.28 90.64 2.21 70
11 10/27/2017 21:09:27 -76.76, 53.39 89.82 10/27/2017 21:09:06 -76.74, 53.41 89.85 2.67 21




NCC Satellite Simultaneous Nadir Overpasses (SNOs) Prediction Service
